Mount Sterling, KY

6:09 PM EST on December 06, 2016 (GMT -0500)
Mount Sterling-Montgomery County

Weather History for KIOB - November, 2014

Change the Weather History Date:

Friday, November 28, 2014

  Actual Average Record
Temperature  
Mean Temperature 29 °F -  
Max Temperature 35 °F 53 °F 60 °F (2015)
Min Temperature 23 °F 32 °F 14 °F (2013)
Degree Days  
Heating Degree Days 36    
Moisture  
Dew Point 20 °F    
Average Humidity 66    
Maximum Humidity 93    
Minimum Humidity 48    
Precipitation  
Precipitation 0.00 in - - ()
Sea Level Pressure  
Sea Level Pressure 30.31 in    
Wind  
Wind Speed 5 mph (SW)    
Max Wind Speed 10 mph    
Max Gust Speed -    
Visibility 10 miles    
Events Snow    
Averages and records for this station are not official NWS values.
T = Trace of Precipitation, MM = Missing Value Source: NWS Daily Summary

Daily Weather History Graph

Daily Weather History Graph

Search for Another Location

Airport or City:

Trip Planner

Search our weather history database for the weather conditions in past years. The results will help you decide how hot, cold, wet, or windy it might be!

Date:

Astronomy

Nov. 28, 2014 Rise Set
Actual Time 7:30 AM EST 5:17 PM EST
Civil Twilight 7:01 AM EST 5:46 PM EST
Nautical Twilight 6:28 AM EST 6:18 PM EST
Astronomical Twilight 5:57 AM EST 6:50 PM EST
Moon 12:26 PM EST (11/28) No Moon Set
Length of Visible Light 10h 44m
Length of Day
9h 46m
Waxing Crescent, 42% of the Moon is Illuminated
Nov 28
Waxing Crescent
Nov 29
First Quarter
Dec 6
Full
Dec 14
Last Quarter
Dec 21
New

Hourly Weather History & Observations

Time (EST) Temp. Windchill Dew Point Humidity Pressure Visibility Wind Dir Wind Speed Gust Speed Precip Events Conditions
12:15 AM 28.4 °F 22.2 °F 23.0 °F 80% 30.40 in 10.0 mi WNW 5.8 mph - N/A   Overcast
12:35 AM 28.4 °F 21.2 °F 21.2 °F 74% 30.40 in 10.0 mi WNW 6.9 mph - N/A   Overcast
12:55 AM 28.4 °F 24.6 °F 21.2 °F 74% 30.40 in 10.0 mi WNW 3.5 mph - N/A   Overcast
1:15 AM 28.4 °F 20.4 °F 23.0 °F 80% 30.40 in 10.0 mi WNW 8.1 mph - N/A   Overcast
1:35 AM 28.4 °F 19.7 °F 21.2 °F 74% 30.40 in 10.0 mi WNW 9.2 mph - N/A   Overcast
1:55 AM 28.4 °F 22.2 °F 21.2 °F 74% 30.39 in 10.0 mi WNW 5.8 mph - N/A Snow Light Snow
2:15 AM 28.4 °F 21.2 °F 21.2 °F 74% 30.40 in 10.0 mi West 6.9 mph - N/A   Overcast
2:35 AM 28.4 °F 21.2 °F 21.2 °F 74% 30.39 in 10.0 mi WNW 6.9 mph - N/A   Overcast
2:55 AM 28.4 °F 23.3 °F 21.2 °F 74% 30.39 in 10.0 mi WNW 4.6 mph - N/A   Overcast
3:15 AM 28.4 °F 23.3 °F 21.2 °F 74% 30.39 in 10.0 mi WNW 4.6 mph - N/A   Overcast
3:35 AM 28.4 °F - 21.2 °F 74% 30.40 in 10.0 mi Calm Calm - N/A   Overcast
3:55 AM 28.4 °F 24.6 °F 21.2 °F 74% 30.40 in 10.0 mi WNW 3.5 mph - N/A   Overcast
4:15 AM 28.4 °F 23.3 °F 21.2 °F 74% 30.40 in 10.0 mi West 4.6 mph - N/A   Overcast
4:35 AM 28.4 °F 24.6 °F 21.2 °F 74% 30.40 in 10.0 mi West 3.5 mph - N/A   Overcast
4:55 AM 26.6 °F - 21.2 °F 80% 30.39 in 10.0 mi Calm Calm - N/A   Overcast
5:15 AM 26.6 °F - 21.2 °F 80% 30.39 in 10.0 mi Calm Calm - N/A   Mostly Cloudy
5:35 AM 24.8 °F 20.5 °F 21.2 °F 86% 30.41 in 10.0 mi WNW 3.5 mph - N/A   Clear
5:55 AM 23.0 °F 18.4 °F 21.2 °F 93% 30.42 in 10.0 mi WNW 3.5 mph - N/A   Scattered Clouds
6:15 AM 24.8 °F 20.5 °F 21.2 °F 86% 30.42 in 10.0 mi West 3.5 mph - N/A   Scattered Clouds
6:35 AM 26.6 °F 22.6 °F 21.2 °F 80% 30.41 in 10.0 mi West 3.5 mph - N/A   Scattered Clouds
6:55 AM 26.6 °F - 21.2 °F 80% 30.42 in 10.0 mi Calm Calm - N/A   Overcast
7:15 AM 26.6 °F - 21.2 °F 80% 30.42 in 10.0 mi Calm Calm - N/A   Overcast
7:35 AM 26.6 °F - 21.2 °F 80% 30.42 in 10.0 mi Calm Calm - N/A   Overcast
7:55 AM 26.6 °F - 21.2 °F 80% 30.43 in 10.0 mi Calm Calm - N/A   Overcast
8:15 AM 26.6 °F - 23.0 °F 86% 30.43 in 10.0 mi Calm Calm - N/A   Overcast
8:35 AM 28.4 °F - 23.0 °F 80% 30.43 in 10.0 mi Calm Calm - N/A   Overcast
8:55 AM 28.4 °F 23.3 °F 21.2 °F 74% 30.43 in 10.0 mi WSW 4.6 mph - N/A   Overcast
9:15 AM 28.4 °F 23.3 °F 23.0 °F 80% 30.42 in 10.0 mi West 4.6 mph - N/A   Mostly Cloudy
9:35 AM 28.4 °F 22.2 °F 21.2 °F 74% 30.42 in 10.0 mi WSW 5.8 mph - N/A   Overcast
9:55 AM 28.4 °F 23.3 °F 21.2 °F 74% 30.42 in 10.0 mi West 4.6 mph - N/A   Overcast
10:15 AM 30.2 °F 24.3 °F 21.2 °F 69% 30.41 in 10.0 mi SW 5.8 mph - N/A   Overcast
10:35 AM 30.2 °F 23.4 °F 21.2 °F 69% 30.40 in 10.0 mi SSW 6.9 mph - N/A   Overcast
10:55 AM 32.0 °F 23.6 °F 21.2 °F 64% 30.40 in 10.0 mi SSW 10.4 mph - N/A   Mostly Cloudy
11:15 AM 32.0 °F 26.4 °F 21.2 °F 64% 30.40 in 10.0 mi SW 5.8 mph - N/A   Scattered Clouds
11:35 AM 32.0 °F 26.4 °F 19.4 °F 60% 30.39 in 10.0 mi West 5.8 mph - N/A   Mostly Cloudy
11:55 AM 33.8 °F 27.0 °F 21.2 °F 60% 30.38 in 10.0 mi SSW 8.1 mph - N/A   Mostly Cloudy
12:15 PM 33.8 °F 28.6 °F 19.4 °F 56% 30.36 in 10.0 mi WSW 5.8 mph - N/A   Scattered Clouds
12:35 PM 32.0 °F 25.6 °F 19.4 °F 60% 30.34 in 10.0 mi WSW 6.9 mph - N/A   Mostly Cloudy
12:55 PM 33.8 °F 27.0 °F 19.4 °F 56% 30.33 in 10.0 mi South 8.1 mph - N/A   Scattered Clouds
1:15 PM 33.8 °F 28.6 °F 19.4 °F 56% 30.32 in 10.0 mi SSW 5.8 mph - N/A   Scattered Clouds
1:35 PM 33.8 °F 27.7 °F 19.4 °F 56% 30.31 in 10.0 mi SW 6.9 mph - N/A   Scattered Clouds
1:55 PM 33.8 °F 26.4 °F 19.4 °F 56% 30.30 in 10.0 mi WSW 9.2 mph - N/A   Scattered Clouds
2:15 PM 33.8 °F 25.8 °F 19.4 °F 56% 30.28 in 10.0 mi SSW 10.4 mph - N/A   Clear
2:35 PM 33.8 °F 25.8 °F 19.4 °F 56% 30.27 in 10.0 mi SSW 10.4 mph - N/A   Clear
2:55 PM 33.8 °F 27.7 °F 17.6 °F 52% 30.27 in 10.0 mi SW 6.9 mph - N/A   Clear
3:15 PM 33.8 °F 27.0 °F 17.6 °F 52% 30.28 in 10.0 mi WSW 8.1 mph - N/A   Mostly Cloudy
3:35 PM 33.8 °F 27.0 °F 17.6 °F 52% 30.27 in 10.0 mi SW 8.1 mph - N/A   Overcast
3:55 PM 35.6 °F 29.9 °F 17.6 °F 48% 30.26 in 10.0 mi SW 6.9 mph - N/A   Mostly Cloudy
4:15 PM 35.6 °F 29.2 °F 17.6 °F 48% 30.25 in 10.0 mi SSW 8.1 mph - N/A   Scattered Clouds
4:35 PM 35.6 °F 28.6 °F 17.6 °F 48% 30.25 in 10.0 mi SSW 9.2 mph - N/A   Scattered Clouds
4:55 PM 35.6 °F 30.7 °F 17.6 °F 48% 30.24 in 10.0 mi South 5.8 mph - N/A   Scattered Clouds
5:15 PM 33.8 °F 28.6 °F 19.4 °F 56% 30.24 in 10.0 mi South 5.8 mph - N/A   Scattered Clouds
5:35 PM 33.8 °F 29.6 °F 19.4 °F 56% 30.24 in 10.0 mi South 4.6 mph - N/A   Clear
5:55 PM 32.0 °F 26.4 °F 19.4 °F 60% 30.23 in 10.0 mi South 5.8 mph - N/A   Clear
6:15 PM 32.0 °F 27.5 °F 17.6 °F 55% 30.23 in 10.0 mi South 4.6 mph - N/A   Clear
6:35 PM 32.0 °F 26.4 °F 17.6 °F 55% 30.22 in 10.0 mi South 5.8 mph - N/A   Clear
6:55 PM 32.0 °F 25.6 °F 17.6 °F 55% 30.21 in 10.0 mi South 6.9 mph - N/A   Clear
7:15 PM 32.0 °F 25.6 °F 19.4 °F 60% 30.20 in 10.0 mi South 6.9 mph - N/A   Clear
7:35 PM 32.0 °F 26.4 °F 19.4 °F 60% 30.20 in 10.0 mi South 5.8 mph - N/A   Clear
7:55 PM 32.0 °F 26.4 °F 19.4 °F 60% 30.19 in 10.0 mi South 5.8 mph - N/A   Clear
8:15 PM 32.0 °F 24.8 °F 19.4 °F 60% 30.18 in 10.0 mi South 8.1 mph - N/A   Clear
8:35 PM 32.0 °F 26.4 °F 19.4 °F 60% 30.17 in 10.0 mi South 5.8 mph - N/A   Clear
8:55 PM 32.0 °F 25.6 °F 19.4 °F 60% 30.16 in 10.0 mi South 6.9 mph - N/A   Clear
9:15 PM 32.0 °F 25.6 °F 19.4 °F 60% 30.15 in 10.0 mi South 6.9 mph - N/A   Clear
9:35 PM 32.0 °F 26.4 °F 19.4 °F 60% 30.14 in 10.0 mi South 5.8 mph - N/A   Clear
9:55 PM 32.0 °F 25.6 °F 19.4 °F 60% 30.13 in 10.0 mi South 6.9 mph - N/A   Clear
10:15 PM 32.0 °F 25.6 °F 19.4 °F 60% 30.12 in 10.0 mi SSW 6.9 mph - N/A   Clear
10:35 PM 32.0 °F 24.8 °F 19.4 °F 60% 30.12 in 10.0 mi SSW 8.1 mph - N/A   Clear
10:55 PM 32.0 °F 24.2 °F 21.2 °F 64% 30.11 in 10.0 mi SSW 9.2 mph - N/A   Clear
11:15 PM 32.0 °F 25.6 °F 21.2 °F 64% 30.12 in 10.0 mi SSW 6.9 mph - N/A   Clear
11:35 PM 32.0 °F 26.4 °F 21.2 °F 64% 30.12 in 10.0 mi SSW 5.8 mph - N/A   Clear
11:55 PM 32.0 °F 26.4 °F 21.2 °F 64% 30.12 in 10.0 mi SSW 5.8 mph - N/A   Clear